Погода в Спокойной

Россия / Краснодарский край     44°14′41″N   41°23′32″E
темп.,
°C
ветер,
м/с
пор.,
м/с
влажн.,
%
обл.,
%
осадки,
мм/ч
давл.,
гПа
погр.,
м
11 мая, вт
вт1100:00+2юз2289100 0.0 101918
03:00+2ю3476100 0.0 101888
06:00+3ю2470100 0.1 1017120
09:00+5ю0165100 0.3 1016339
12:00+6св2377100 0.8 1016503
15:00+8св3579100 1.1 1015561
18:00+8св3481100 0.0 1016444
21:00+6юв1191100 0.1 101611
12 мая, ср
ср1200:00+4ююв119187 0.0 101610
03:00+5зюз1182100 0.0 101617
06:00+6ю117688 0.0 101753
09:00+11всв22601 0.0 1016534
12:00+15всв44621 0.0 10141059
15:00+17всв55605 0.0 10141187
18:00+14в597342 0.0 1013544
21:00+8ююв1188100 0.0 101310
13 мая, чт
чт1300:00+8ю22890 0.0 101318
03:00+8ююз33660 0.0 101319
06:00+9ю32630 0.0 101426
09:00+18вюв11490 0.0 1013295
12:00+21всв34505 0.0 1012688
15:00+22всв44557 0.0 1012948
18:00+19всв377863 0.0 1012243
21:00+14юв11895 0.0 101411
14 мая, пт
пт1400:00+13ю3385100 0.0 101322
03:00+12ююз335999 0.0 101329
06:00+12ю33573 0.0 101332
09:00+23ю22470 0.0 1011200
12:00+27в23380 0.0 1011726
15:00+27всв34495 0.0 10101069
18:00+23всв367759 0.0 1011179
21:00+18ю228726 0.0 101112
15 мая, сб
сб1500:00+16ю338015 0.0 101123
03:00+14ю3360100 0.0 101324
06:00+15юз22670 0.0 101416
09:00+21зсз22690 0.0 1014449
12:00+24ссв33630 0.0 1014900
15:00+23ссв556658 0.0 10131285
18:00+19сз3687100 0.4 1014147
21:00+16ююв2293100 2.2 101431